Regional Weather Roundup
Issued by NWS Mt. Holly, NJ

Home | Current Version | Previous Version | Text Only | Print | Product List | Glossary On
Versions: 1 2 3 4 5 6 7 8 9 10 11 12 13 14 15 16 17 18 19 20 21 22 23 24 25 26 27 28 29 30 31 32 33 34 35 36 37 38 39 40 41 42 43 44 45 46
000
ASUS41 KPHI 260110
RWRPHI

REGIONAL WEATHER ROUNDUP
NATIONAL WEATHER SERVICE MOUNT HOLLY NJ
800 PM EST THU DEC 25 2014

NOTE:  "FAIR" INDICATES FEW OR NO CLOUDS BELOW 12,000 FEET WITH NO
SIGNIFICANT WEATHER AND/OR OBSTRUCTIONS TO VISIBILITY.

 * = STATION DOES NOT REPORT PRECIPITATION (E.G. RAIN, SNOW, ETC.)
        OR FOG.

NJZ015>026-260200-
SOUTHERN NEW JERSEY

CITY           SKY/WX    TMP DP  RH WIND       PRES   REMARKS
POMONA         CLEAR     43  31  62 W7        30.10R
RIO GRANDE*    CLEAR     45  32  61 W6        30.10R
MILLVILLE      CLEAR     45  31  58 W9        30.12R
WRIGHTSTOWN    CLEAR     46  30  54 W12G17    30.07R
MOUNT HOLLY    CLEAR     47  29  49 W13G23    30.11R
TRENTON        CLEAR     45  29  53 W6        30.08R

$$
NJZ001>014-260200-
NORTHERN NEW JERSEY

CITY           SKY/WX    TMP DP  RH WIND       PRES   REMARKS
SUSSEX         PTCLDY    43  29  57 VRB6      30.03R
ANDOVER*       NOT AVBL
MORRISTOWN     PTCLDY    48  34  57 NW8       30.05R
NEWARK         PTCLDY    47  30  51 W8        30.05R
TETERBORO      PTCLDY    47  30  51 W7        30.04R
CALDWELL       CLEAR     46  28  49 NW13G21   30.04R
SOMERVILLE     CLEAR     45  30  55 W7        30.05R
ALLAIRE*       CLEAR     46  28  49 W13G20    30.06R
TOMS RIVER*    CLEAR     45  30  57 W6        30.08R

$$
PAZ043-044-047-054-055-060>062-066>071-260200-
EASTERN PENNSYLVANIA

CITY           SKY/WX    TMP DP  RH WIND       PRES   REMARKS
PHILADELPHIA   PTCLDY    45  30  55 W8        30.12R
NORTH PHILA    CLEAR     47  28  47 W10       30.12R
BLUE BELL      PTCLDY    45  32  61 W5        30.09R
DOYLESTOWN     CLEAR     42  32  67 W13       30.08R
POTTSTOWN      PTCLDY    43  30  60 W7        30.11R
LANCASTER      MOCLDY    43  29  57 NW13      30.12R
COATESVILLE    MOCLDY    45  32  61 NW14G20   30.11R
READING        MOCLDY    44  28  53 W17G25    30.11R
ALLENTOWN      PTCLDY    44  29  55 W8        30.09R
MOUNT POCONO   CLOUDY    38  28  67 NW12G21   30.00R WCI  30
HAZLETON       PTCLDY    37  30  75 W9G21     30.08R WCI  31
WILKES BARRE   CLOUDY    42  29  59 W18G24    30.06R

$$
DEZALL-MDZ008-012-015-019-020-260200-
DELAWARE AND EASTERN MARYLAND

CITY           SKY/WX    TMP DP  RH WIND       PRES   REMARKS
WILMINGTON     CLEAR     45  30  55 W12       30.13R
DOVER          CLEAR     44  29  57 W5        30.12R
GEORGETOWN     CLEAR     42  33  70 CALM      30.14R
EASTON         CLEAR     46  34  61 NW9       30.18R
PATUXENT       CLEAR     41  32  70 NW6       30.17R
OCEAN CITY     CLEAR     38  34  85 SW3       30.14R
WALLOPS ISLAND CLEAR     39  34  82 CALM      30.16R
CAMBRIDGE      CLEAR     45  32  61 NW6       30.15R
SALISBURY      CLEAR     39  34  82 NW3       30.14R

$$
PAZ001-021-NYZ056-072-MDZ011-DCZ001-260200-
OTHER NEARBY LOCATIONS

CITY           SKY/WX    TMP DP  RH WIND       PRES   REMARKS
HARRISBURG     MOCLDY    41  30  65 NW9       30.14R
STATE COLLEGE  CLOUDY    39  28  65 W9        30.16R WCI  33
WILLIAMSPORT   CLOUDY    42  30  62 W8        30.11R
BINGHAMTON     CLOUDY    38  28  67 W17G24    30.01R WCI  28
NEW YORK CITY  CLEAR     48  29  47 W9G16     30.06R
BALTIMORE      CLEAR     40  30  67 W7        30.16R
WASHINGTON DC  CLEAR     48  29  47 NW10      30.19R

$$


USA.gov is the U.S. government's official web portal to all federal, state and local government web resources and services.